TimeEDT,TemperatureF,Dew PointF,Humidity,Sea Level PressureIn,VisibilityMPH,Wind Direction,Wind SpeedMPH,Gust SpeedMPH,PrecipitationIn,Events,Conditions,WindDirDegrees,DateUTC
12:04 AM,39.2,37.4,93,29.74,6.0,NE,5.8,-,0.01,Rain,Light Rain,40,2013-04-01 04:04:00
12:18 AM,39.2,37.4,93,29.74,6.0,South,3.5,-,0.03,Rain,Light Rain,170,2013-04-01 04:18:00
12:42 AM,39.2,37.4,93,29.74,5.0,Calm,Calm,-,0.08,Rain,Light Rain,0,2013-04-01 04:42:00
12:53 AM,39.9,36.0,86,29.74,3.0,Variable,3.5,-,0.12,Rain,Rain,0,2013-04-01 04:53:00
1:20 AM,37.4,33.8,87,29.72,6.0,Calm,Calm,-,0.06,Rain,Light Rain,0,2013-04-01 05:20:00
1:28 AM,37.4,33.8,87,29.72,7.0,Calm,Calm,-,0.07,Rain,Light Rain,0,2013-04-01 05:28:00
1:53 AM,37.0,33.1,86,29.71,6.0,NE,4.6,-,0.11,Rain,Light Rain,50,2013-04-01 05:53:00
2:14 AM,35.6,33.8,93,29.69,6.0,NE,3.5,-,0.02,Rain,Light Rain,40,2013-04-01 06:14:00
2:53 AM,36.0,33.1,89,29.69,10.0,NE,5.8,-,0.03,Rain,Light Rain,40,2013-04-01 06:53:00
3:24 AM,35.6,32.0,87,29.65,9.0,NE,5.8,-,0.01,,Overcast,50,2013-04-01 07:24:00
3:42 AM,35.6,33.8,93,29.64,7.0,NE,4.6,-,0.01,Rain,Light Rain,50,2013-04-01 07:42:00
3:53 AM,36.0,33.1,89,29.65,7.0,Calm,Calm,-,0.02,Rain,Light Rain,0,2013-04-01 07:53:00
4:15 AM,37.4,33.8,87,29.62,9.0,Calm,Calm,-,0.00,,Overcast,0,2013-04-01 08:15:00
4:24 AM,35.6,33.8,93,29.62,5.0,Calm,Calm,-,0.01,Rain,Light Rain,0,2013-04-01 08:24:00
5:20 AM,35.6,33.8,93,29.62,6.0,Calm,Calm,-,0.01,Rain,Light Rain,0,2013-04-01 09:20:00
5:37 AM,35.6,33.8,93,29.62,6.0,Calm,Calm,-,0.01,,Overcast,0,2013-04-01 09:37:00
5:53 AM,36.0,34.0,93,29.62,8.0,Calm,Calm,-,0.01,,Overcast,0,2013-04-01 09:53:00
6:03 AM,35.6,33.8,93,29.62,8.0,Calm,Calm,-,N/A,,Overcast,0,2013-04-01 10:03:00
6:53 AM,36.0,34.0,93,29.63,10.0,Calm,Calm,-,N/A,,Overcast,0,2013-04-01 10:53:00
7:26 AM,35.6,33.8,93,29.63,10.0,SW,5.8,-,N/A,,Overcast,230,2013-04-01 11:26:00
7:32 AM,35.6,33.8,93,29.63,9.0,Calm,Calm,-,N/A,,Overcast,0,2013-04-01 11:32:00
7:40 AM,35.6,33.8,93,29.63,8.0,Calm,Calm,-,N/A,,Overcast,0,2013-04-01 11:40:00
7:53 AM,36.0,34.0,93,29.64,10.0,Calm,Calm,-,N/A,,Overcast,0,2013-04-01 11:53:00
8:42 AM,37.4,33.8,87,29.61,10.0,SSE,4.6,-,N/A,,Overcast,160,2013-04-01 12:42:00
8:53 AM,37.9,35.1,89,29.61,10.0,SSE,3.5,-,N/A,,Overcast,160,2013-04-01 12:53:00
9:05 AM,39.2,35.6,87,29.59,10.0,South,3.5,-,N/A,,Overcast,180,2013-04-01 13:05:00
9:53 AM,41.0,37.0,86,29.58,10.0,West,5.8,-,N/A,,Mostly Cloudy,260,2013-04-01 13:53:00
10:03 AM,42.8,37.4,81,29.57,10.0,Calm,Calm,-,N/A,,Mostly Cloudy,0,2013-04-01 14:03:00
10:53 AM,46.0,39.0,76,29.56,10.0,West,3.5,-,N/A,,Mostly Cloudy,260,2013-04-01 14:53:00
11:53 AM,48.9,39.0,69,29.54,10.0,South,10.4,-,N/A,,Overcast,190,2013-04-01 15:53:00
12:50 PM,48.2,39.2,71,29.51,10.0,South,11.5,-,N/A,,Overcast,180,2013-04-01 16:50:00
12:53 PM,48.9,39.0,69,29.51,10.0,South,8.1,-,N/A,,Overcast,180,2013-04-01 16:53:00
1:24 PM,48.2,41.0,76,29.51,3.0,WSW,8.1,-,0.02,Rain,Light Rain,250,2013-04-01 17:24:00
1:53 PM,48.0,39.9,74,29.53,10.0,WSW,5.8,-,0.02,,Overcast,240,2013-04-01 17:53:00
2:12 PM,48.2,39.2,71,29.52,10.0,Variable,6.9,-,N/A,,Overcast,0,2013-04-01 18:12:00
2:53 PM,46.9,36.0,66,29.54,10.0,West,9.2,18.4,N/A,,Overcast,270,2013-04-01 18:53:00
3:53 PM,43.0,34.0,71,29.58,10.0,WNW,9.2,-,0.00,,Overcast,290,2013-04-01 19:53:00
4:53 PM,41.0,33.1,73,29.62,10.0,WNW,10.4,-,0.00,,Overcast,290,2013-04-01 20:53:00
5:12 PM,41.0,30.2,65,29.62,10.0,West,15.0,19.6,N/A,,Overcast,280,2013-04-01 21:12:00
5:53 PM,39.9,28.0,63,29.66,10.0,West,5.8,-,N/A,,Mostly Cloudy,270,2013-04-01 21:53:00
6:53 PM,39.0,16.0,39,29.67,10.0,WNW,11.5,18.4,N/A,,Partly Cloudy,300,2013-04-01 22:53:00
7:53 PM,36.0,12.0,37,29.72,10.0,WNW,10.4,16.1,N/A,,Clear,290,2013-04-01 23:53:00
8:53 PM,34.0,10.9,38,29.76,10.0,WNW,15.0,20.7,N/A,,Partly Cloudy,300,2013-04-02 00:53:00
9:53 PM,32.0,10.0,40,29.78,10.0,WNW,9.2,19.6,N/A,,Partly Cloudy,290,2013-04-02 01:53:00
10:53 PM,32.0,9.0,38,29.78,10.0,NW,12.7,18.4,N/A,,Clear,310,2013-04-02 02:53:00
11:53 PM,30.0,10.0,43,29.78,10.0,NW,8.1,-,N/A,,Clear,310,2013-04-02 03:53:00